Weather History for KDEC - July, 2013

Change the Weather History Date:

Saturday, July 6, 2013

  Actual Average Record
Temperature  
Mean Temperature 74 °F 76 °F  
Max Temperature 82 °F 87 °F 104 °F (2012)
Min Temperature 65 °F 66 °F 39 °F (2007)
Degree Days  
Heating Degree Days 0 0  
Month to date heating degree days 0 0  
Since 1 June heating degree days 14 17  
Since 1 July heating degree days 0 0  
Cooling Degree Days 9 11  
Month to date cooling degree days 32 66  
Year to date cooling degree days 386 382  
Since 1 June cooling degree days 274 295  
Growing Degree Days 22 (Base 50)    
Moisture  
Dew Point 66 °F    
Average Humidity 76    
Maximum Humidity 93    
Minimum Humidity 58    
Precipitation  
Precipitation 0.00 in 0.12 in 1.12 in (2004)
Month to date precipitation 0.08 0.76  
Year to date precipitation 23.34 19.56  
Sea Level Pressure  
Sea Level Pressure 30.05 in    
Wind  
Wind Speed 5 mph (South)    
Max Wind Speed 15 mph    
Max Gust Speed 18 mph    
Visibility 8 miles    
Events      
T = Trace of Precipitation, MM = Missing Value Source: NWS Daily Summary

Daily Weather History Graph

Daily Weather History Graph

Search for Another Location

Airport or City:

Trip Planner

Search our weather history database for the weather conditions in past years. The results will help you decide how hot, cold, wet, or windy it might be!

Date:

Astronomy

Jul. 06, 2013 Rise Set
Actual Time 5:33 AM CDT 8:26 PM CDT
Civil Twilight 5:01 AM CDT 8:58 PM CDT
Nautical Twilight 4:20 AM CDT 9:39 PM CDT
Astronomical Twilight 3:33 AM CDT 10:26 PM CDT
Moon 4:19 AM CDT (7/6) 7:08 PM CDT (7/6)
Length of Visible Light 15h 57m
Length of Day
14h 52m
Waning Crescent, 2% of the Moon is Illuminated
Jul 6
Waning Crescent
Jul 8
New
Jul 15
First Quarter
Jul 22
Full
Jul 29
Last Quarter

Hourly Weather History & Observations

Time (CDT) Temp. Heat Index Dew Point Humidity Pressure Visibility Wind Dir Wind Speed Gust Speed Precip Events Conditions
12:54 AM 69.1 °F - 64.9 °F 87% 30.05 in 8.0 mi SSE 4.6 mph - N/A   Clear
1:54 AM 69.1 °F - 66.0 °F 90% 30.05 in 6.0 mi SSE 3.5 mph - N/A   Clear
2:54 AM 68.0 °F - 64.9 °F 90% 30.05 in 5.0 mi Calm Calm - N/A   Clear
3:54 AM 66.9 °F - 64.9 °F 93% 30.05 in 4.0 mi Calm Calm - N/A   Clear
4:54 AM 66.9 °F - 64.0 °F 90% 30.06 in 4.0 mi SSE 3.5 mph - N/A   Partly Cloudy
5:54 AM 64.9 °F - 63.0 °F 93% 30.06 in 4.0 mi Calm Calm - N/A   Clear
6:54 AM 68.0 °F - 64.9 °F 90% 30.06 in 3.0 mi Calm Calm - N/A   Clear
7:23 AM 69.8 °F - 66.2 °F 88% 30.08 in 4.0 mi Calm Calm - N/A   Mostly Cloudy
7:54 AM 71.1 °F - 68.0 °F 90% 30.07 in 4.0 mi SE 3.5 mph - N/A   Overcast
8:03 AM 71.6 °F - 68.0 °F 88% 30.08 in 4.0 mi SSE 4.6 mph - N/A   Overcast
8:54 AM 73.0 °F - 68.0 °F 84% 30.07 in 6.0 mi South 8.1 mph - N/A   Haze
9:23 AM 73.4 °F - 68.0 °F 83% 30.08 in 7.0 mi SSW 5.8 mph - N/A   Overcast
9:54 AM 75.9 °F - 68.0 °F 76% 30.07 in 9.0 mi SSW 6.9 mph - N/A   Mostly Cloudy
10:06 AM 75.2 °F - 68.0 °F 78% 30.09 in 10.0 mi SSW 6.9 mph - N/A   Mostly Cloudy
10:20 AM 75.2 °F - 66.2 °F 73% 30.09 in 10.0 mi SSW 5.8 mph - N/A   Scattered Clouds
10:54 AM 79.0 °F - 68.0 °F 69% 30.06 in 10.0 mi South 4.6 mph - N/A   Mostly Cloudy
11:02 AM 78.8 °F - 66.2 °F 65% 30.08 in 10.0 mi South 4.6 mph - N/A   Scattered Clouds
11:11 AM 77.0 °F - 66.2 °F 69% 30.07 in 10.0 mi SSW 4.6 mph - N/A   Mostly Cloudy
11:19 AM 77.0 °F - 66.2 °F 69% 30.07 in 10.0 mi Calm Calm - N/A   Scattered Clouds
11:54 AM 80.1 °F 82.1 °F 66.0 °F 62% 30.05 in 10.0 mi SW 6.9 mph - N/A   Partly Cloudy
12:54 PM 81.0 °F 82.5 °F 64.0 °F 56% 30.04 in 10.0 mi Calm Calm - N/A   Partly Cloudy
1:54 PM 80.1 °F 82.1 °F 66.0 °F 62% 30.03 in 10.0 mi South 5.8 mph - N/A   Scattered Clouds
2:54 PM 80.1 °F 82.1 °F 66.0 °F 62% 30.02 in 10.0 mi SSE 4.6 mph - N/A   Mostly Cloudy
3:54 PM 81.0 °F 82.7 °F 64.9 °F 58% 30.01 in 10.0 mi East 4.6 mph - N/A   Scattered Clouds
4:54 PM 78.1 °F - 69.1 °F 74% 30.01 in 10.0 mi SSE 11.5 mph 18.4 mph N/A   Clear
5:54 PM 75.9 °F - 68.0 °F 76% 30.00 in 10.0 mi SE 11.5 mph - N/A   Clear
6:54 PM 75.9 °F - 68.0 °F 76% 30.00 in 10.0 mi SE 9.2 mph - N/A   Clear
7:54 PM 75.0 °F - 66.0 °F 73% 30.01 in 10.0 mi SE 8.1 mph - N/A   Clear
8:54 PM 73.0 °F - 66.9 °F 81% 30.02 in 10.0 mi South 8.1 mph - N/A   Clear
9:54 PM 72.0 °F - 66.9 °F 84% 30.04 in 10.0 mi SE 8.1 mph - N/A   Clear
10:54 PM 71.1 °F - 62.1 °F 73% 30.05 in 10.0 mi South 9.2 mph - N/A   Clear
11:54 PM 70.0 °F - 61.0 °F 73% 30.04 in 10.0 mi South 8.1 mph - N/A   Clear